Home   Weather   Cayenne   Past weeks
Flag for French Guiana

Past Weather in Cayenne, French Guiana — Yesterday and Last 2 Weeks

Now
81 °F

Passing clouds.


Feels Like: 85 °F
Forecast: 85 / 80 °F
Wind: 8 mph from Northeast

Location: Cayenne / Rochambeau

Current Time: Mar 22, 2019 at 10:48:46 pm

Latest Report: Mar 22, 2019 at 10:00 pm


Visibility: N/A

Pressure: 29.95 "Hg

Humidity: 74%

Dew Point: 72 °F

Location of CayenneLocation

Past Weather in Cayenne — Graph

°F

Cayenne Temperature Yesterday

Maximum temperature yesterday: 88 °F (at 12:30 pm)
Minimum temperature yesterday: 73 °F (at 5:00 am)
Average temperature yesterday: 81 °F

High & Low Weather Summary for the Past Weeks

 TemperatureHumidityPressure
High90 °F (Mar 22, 1:00 pm)100% (Mar 8, 7:00 am)30.01 "Hg (Mar 8, 7:00 am)
Low72 °F (Mar 8, 2:30 am)52% (Mar 8, 3:00 pm)29.83 "Hg (Mar 10, 4:00 pm)
Average80 °F78%29.90 "Hg
* Reported Mar 7 9:00 pm — Mar 22 9:30 pm, Cayenne. Weather by CustomWeather, © 2019

Note: Actual official high and low records may vary slightly from our data, if they occured in-between our weather recording intervals... More about our weather records

Advertising

Cayenne Weather History for the Previous 24 Hours

Scroll right to see more
 ConditionsComfort  
Time TempWeatherWind HumidityBarometerVisibility
9:30 pm
Fri, Mar 22
81 °FPassing clouds.9 mph79%29.95 "HgN/A
9:00 pm81 °FClear.8 mph79%29.92 "Hg10 mi
8:30 pm81 °FPassing clouds.9 mph79%29.92 "HgN/A
8:00 pm81 °FPassing clouds.6 mph79%29.92 "HgN/A
7:30 pm81 °FPassing clouds.8 mph79%29.92 "HgN/A
7:00 pm81 °FPassing clouds.9 mph79%29.89 "HgN/A
6:30 pm82 °FBroken clouds.10 mph74%29.89 "HgN/A
6:00 pm82 °FPassing clouds.14 mph74%29.89 "HgN/A
5:30 pm84 °FPartly sunny.13 mph70%29.89 "HgN/A
5:00 pm86 °FPartly sunny.14 mph66%29.89 "HgN/A
4:30 pm86 °FPartly sunny.13 mph66%29.86 "HgN/A
4:00 pm86 °FPartly sunny.13 mph62%29.89 "HgN/A
3:30 pm86 °FScattered clouds.15 mph62%29.89 "HgN/A
3:00 pm88 °FPartly sunny.12 mph62%29.89 "HgN/A
2:30 pm88 °FPartly sunny.13 mph59%29.89 "HgN/A
2:00 pm88 °FPartly sunny.14 mph62%29.92 "HgN/A
1:30 pm88 °FScattered clouds.14 mph59%29.92 "HgN/A
1:00 pm90 °FPassing clouds.15 mph59%29.95 "HgN/A
12:30 pm88 °FPassing clouds.14 mph59%29.95 "HgN/A
12:00 pm88 °FBroken clouds.16 mph59%29.98 "HgN/A
11:30 am88 °FPartly sunny.15 mph59%29.98 "HgN/A
11:00 am88 °FPartly sunny.14 mph59%29.98 "HgN/A
10:30 am86 °FPassing clouds.15 mph66%29.98 "HgN/A
10:00 am86 °FScattered clouds.14 mph62%29.98 "HgN/A
9:30 am86 °FScattered clouds.12 mph66%29.98 "HgN/A
9:00 am84 °FScattered clouds.12 mph66%29.95 "HgN/A
8:30 am82 °FPassing clouds.2 mph74%29.95 "HgN/A
8:00 am77 °FScattered clouds.No wind89%29.95 "HgN/A
7:30 am75 °FPartly sunny.2 mph94%29.92 "HgN/A
7:00 am73 °FPassing clouds.No wind94%29.92 "Hg4 mi
6:30 am73 °FClear.No wind94%29.89 "Hg5 mi
6:00 am73 °FPassing clouds.No wind94%29.89 "Hg4 mi
5:30 am73 °FPassing clouds.1 mph94%29.89 "Hg5 mi
5:00 am73 °FClear.3 mph94%29.86 "Hg5 mi
4:30 am73 °FClear.No wind94%29.86 "Hg5 mi
4:00 am75 °FClear.No wind89%29.86 "Hg5 mi
3:30 am75 °FPassing clouds.No wind89%29.86 "Hg5 mi
3:00 am75 °FPassing clouds.No wind89%29.86 "Hg5 mi
2:30 am77 °FPassing clouds.1 mph83%29.86 "HgN/A
2:00 am77 °FClear.No wind83%29.86 "Hg10 mi
1:30 am77 °FPassing clouds.No wind89%29.89 "HgN/A
1:00 am77 °FPassing clouds.No wind83%29.89 "HgN/A
12:30 am79 °FPassing clouds.6 mph84%29.89 "HgN/A
12:00 am79 °FPassing clouds.2 mph79%29.92 "HgN/A
11:30 pm
Thu, Mar 21
79 °FWarm.5 mph79%29.92 "HgN/A
11:00 pm79 °FWarm.6 mph79%29.92 "HgN/A
10:30 pm79 °FClear.6 mph79%29.92 "Hg10 mi
10:00 pm79 °FClear.5 mph79%29.89 "Hg10 mi
Weather by CustomWeather, © 2019

See weather overview